Probability
0 0 0 0 0 2 5 7 7 6 3 1 0 0 1 2 2 1 0 0 0 0 2 7 11 13 13 14 14 14 16 17 16 17 17 16 12 7 4 6 7 8 8
0 0 0 0 0 1 4 6 6 4 3 2 1 0 1 3 3 1 0 0 0 0 1 5 9 12 12 12 13 15 16 16 15 16 17 18 16 11 6 5 6 8 9
0 0 0 0 0 0 2 4 4 3 3 2 1 0 1 3 3 2 0 0 0 0 0 2 6 9 9 9 12 14 15 15 15 15 17 18 18 14 9 6 6 7 9
0 0 0 0 0 0 1 2 3 3 3 1 0 0 1 2 2 1 0 1 1 1 0 1 3 5 6 8 10 11 13 14 14 14 16 18 18 16 11 8 6 6 7
0 0 0 0 0 0 0 1 1 2 2 1 0 0 0 1 1 0 0 1 2 1 0 0 1 1 4 6 7 8 10 12 12 13 14 17 19 17 13 9 6 5 5
0 0 0 0 0 0 0 0 0 1 1 1 0 0 1 1 0 0 0 0 1 1 0 0 0 1 2 3 4 5 7 8 11 12 14 15 18 18 15 11 7 5 4
0 0 0 0 0 0 0 0 0 0 0 0 0 1 1 0 0 0 0 0 0 0 0 0 0 1 2 2 1 2 4 6 8 11 13 14 15 17 16 12 9 6 5
0 0 0 0 0 0 0 0 0 0 0 0 1 1 1 0 0 0 0 0 0 0 0 0 0 1 2 2 1 1 2 4 6 9 11 13 14 15 15 13 10 8 7
0 0 0 0 0 0 0 0 0 0 0 0 1 1 1 0 1 0 0 0 0 0 0 0 0 0 1 2 1 1 1 3 5 7 10 12 13 14 14 13 12 9 8
0 0 0 0 0 0 0 0 0 0 0 0 0 0 0 0 0 0 0 0 0 0 0 0 0 0 0 1 1 0 0 1 4 6 8 11 13 13 13 13 12 10 8
0 0 0 0 0 0 0 0 0 0 0 0 0 0 0 0 0 0 0 0 0 0 0 0 0 0 0 0 1 0 0 1 2 4 6 9 12 13 12 11 10 9 8
0 0 0 0 0 0 0 0 0 0 0 0 0 0 0 0 0 0 0 0 0 0 0 0 0 0 0 0 0 0 0 0 1 2 4 6 9 10 10 10 9 9 8
0 0 0 0 0 0 0 0 0 0 0 0 0 0 0 0 0 0 0 0 0 0 0 0 0 0 0 0 0 0 0 0 0 1 2 3 5 6 6 7 7 6 6
0 0 0 0 0 0 0 0 0 0 0 0 0 0 0 0 0 0 0 0 0 0 0 0 0 0 0 0 0 0 0 0 0 0 1 1 2 2 2 2 3 2 2
0 0 0 0 0 0 0 0 0 0 0 0 0 0 0 0 0 0 0 0 0 0 0 0 0 0 0 0 0 0 0 0 0 0 0 0 1 1 0 0 0 0 0
0 0 0 0 0 0 0 0 0 0 0 0 0 0 0 0 0 0 0 0 0 0 0 0 0 0 0 0 0 0 0 0 0 0 0 0 0 0 0 0 0 0 0
0 0 0 0 0 0 0 0 0 0 0 0 0 0 0 0 0 0 0 0 0 0 0 0 0 0 0 0 0 0 0 0 0 0 0 0 0 0 0 0 0 0 0
0 0 0 0 0 0 0 0 0 0 0 0 0 0 0 0 0 0 0 0 0 0 0 0 0 0 0 0 0 0 0 0 0 0 0 0 0 0 0 0 0 0 0
0 0 0 0 0 0 0 0 0 0 0 0 0 0 0 0 0 0 0 0 0 0 0 0 0 0 0 0 0 0 0 0 0 0 0 0 0 0 0 0 0 0 0
0 0 0 0 0 0 0 0 0 0 0 0 0 0 0 0 0 0 0 0 0 0 0 0 0 0 0 0 0 0 0 0 0 0 0 0 0 0 0 0 0 0 0
0 0 0 0 0 0 0 0 0 0 0 0 0 0 0 0 0 0 0 0 0 0 0 0 0 0 0 0 0 0 0 0 0 0 0 0 0 0 0 0 0 0 0
0 0 0 0 0 0 0 0 0 0 0 0 0 0 0 0 0 0 0 0 0 0 0 0 0 0 0 0 0 0 0 0 0 0 0 0 0 0 0 0 0 0 0
0 0 0 0 0 0 0 0 0 0 0 0 0 0 0 0 0 0 0 0 0 0 0 0 0 0 0 0 0 0 0 0 0 0 0 0 0 0 0 0 0 0 0
0 0 0 0 0 0 0 0 0 0 0 0 0 0 0 0 0 0 0 0 0 0 0 0 0 0 0 0 0 0 0 0 0 0 0 0 0 0 0 0 0 0 0
0 0 0 0 0 0 0 0 0 0 0 0 0 0 0 0 0 0 0 0 0 0 0 0 0 0 0 0 0 0 0 0 0 0 0 0 0 0 0 0 0 0 0
0 0 0 0 0 0 0 0 0 0 0 0 0 0 0 0 0 0 0 0 0 0 0 0 0 0 0 0 0 0 0 0 0 0 0 0 0 0 0 0 0 0 0
Wind_Speed
2 2 2 2 3 3 3 3 3 3 3 3 4 4 4 5 5 5 3 4 6 8 9 9 9 9 9 9 10 10 10 10 10 10 9 9 11 13 12 12 15 15 15
2 2 3 3 3 3 4 4 4 3 3 3 4 5 5 5 5 6 5 4 6 8 10 11 11 11 11 10 10 10 10 11 11 11 11 10 11 11 13 13 13 15 16
2 3 3 3 3 4 5 4 4 3 3 4 4 5 5 6 6 6 6 5 5 7 9 11 11 12 12 12 11 11 11 10 11 11 11 11 12 13 12 13 13 14 15
3 3 3 3 4 4 4 4 4 4 4 4 4 5 5 5 7 7 6 6 6 6 7 10 11 12 12 12 12 12 11 11 11 12 12 12 13 13 13 14 13 13 15
3 3 3 3 4 4 4 4 4 4 5 5 5 5 5 6 6 7 7 7 7 7 7 7 10 12 13 13 13 13 13 13 13 12 13 13 13 14 13 13 14 14 14
3 4 3 4 4 4 4 4 5 5 5 5 6 6 6 6 6 6 7 7 7 8 8 8 7 8 11 13 13 13 14 14 13 14 13 14 14 15 14 14 13 14 14
3 4 4 4 4 4 5 6 5 6 5 5 5 6 6 6 7 6 6 6 7 7 8 8 7 7 6 11 13 13 14 15 15 14 13 14 15 15 16 15 15 14 14
4 4 5 4 5 5 6 6 5 4 4 4 4 5 5 5 4 5 6 6 7 7 7 8 8 8 7 6 8 11 13 15 15 15 15 15 15 16 17 16 16 15 15
4 5 5 5 5 6 5 6 6 6 5 5 4 4 5 5 6 5 6 6 6 6 7 7 8 8 9 7 7 9 11 14 15 16 15 16 16 16 17 17 16 16 16
5 5 5 6 6 5 6 6 6 6 6 5 5 5 6 6 6 6 5 5 7 8 8 7 8 8 9 8 8 10 10 12 15 16 16 16 17 17 17 17 17 16 15
5 5 6 5 6 5 6 7 6 6 6 6 6 6 7 7 9 8 9 8 7 7 7 8 8 8 8 9 8 9 10 12 14 15 15 16 17 17 16 17 16 16 15
4 6 6 6 6 6 6 7 7 8 7 8 7 6 7 6 7 8 10 10 9 8 8 8 8 8 7 8 9 10 11 12 14 15 15 15 16 16 16 15 16 15 15
5 6 6 6 6 6 7 7 7 8 8 9 8 7 7 8 7 8 9 10 11 9 9 8 7 7 7 7 7 9 11 13 14 14 14 14 14 13 14 14 15 14 15
6 6 7 7 7 7 7 7 7 8 8 9 9 9 7 7 8 8 8 9 10 9 9 10 7 8 6 7 7 9 10 12 13 13 13 13 13 13 13 14 14 14 14
6 7 7 7 7 8 8 8 7 8 8 9 9 10 8 8 8 8 8 8 9 10 10 9 7 7 6 7 7 8 10 11 12 13 13 13 13 13 13 14 13 13 13
7 7 7 8 8 8 8 8 8 8 9 9 8 9 9 8 8 7 8 8 8 9 10 8 8 9 9 8 9 10 10 11 12 13 13 13 13 13 13 12 12 12 12
7 7 7 7 8 8 8 8 8 9 10 10 9 10 10 10 8 7 8 8 9 9 10 10 8 9 11 10 8 8 8 8 7 11 13 13 13 13 12 11 11 11 12
6 7 7 7 8 8 8 8 9 9 10 10 10 11 11 9 11 9 8 9 9 9 9 11 9 9 11 10 8 8 7 6 7 8 11 13 13 12 11 10 10 10 10
6 7 7 7 8 8 8 8 9 9 10 11 11 11 11 11 11 9 10 9 8 8 8 9 10 8 8 7 7 7 7 6 6 6 9 10 11 10 9 9 9 9 9
6 6 7 7 7 8 8 8 9 9 10 10 11 11 11 11 11 11 9 10 9 9 8 8 8 8 7 7 6 6 5 5 5 5 5 5 5 7 7 7 8 8 8
6 6 7 7 7 7 7 8 8 9 9 10 10 10 10 11 13 12 9 9 9 8 7 8 8 8 7 7 6 5 5 5 5 4 4 3 2 3 3 5 6 6 6
6 6 6 7 8 6 9 11 10 9 9 10 10 10 10 11 12 15 16 15 13 11 9 9 8 9 9 8 6 5 4 5 5 3 3 2 2 2 2 2 3 4 5
6 6 7 7 8 9 10 12 12 10 9 9 9 9 8 9 11 10 12 14 14 14 15 12 11 11 10 9 7 7 6 5 5 3 2 2 2 2 2 2 4 4 4
6 6 7 7 8 9 11 12 12 10 9 9 9 10 10 10 9 10 10 10 10 10 10 10 11 11 9 8 7 6 5 4 3 2 2 2 2 2 2 1 3 5 5
6 6 7 7 8 9 10 12 12 8 7 9 9 9 10 10 11 12 10 10 9 8 8 10 10 10 10 9 7 3 3 3 2 2 2 1 1 1 2 2 0 3 4
6 6 7 7 8 8 10 11 11 6 7 7 7 8 9 10 11 12 9 8 9 8 7 6 6 6 6 6 6 5 5 4 2 2 2 1 1 0 1 2 1 1 2
Wind_Direction
335 329 324 320 319 318 311 304 298 300 296 296 285 271 270 272 274 270 262 252 263 267 265 263 261 256 253 250 244 242 238 237 233 231 231 234 232 229 227 229 224 219 218
321 316 316 315 313 315 310 301 296 293 290 291 288 277 267 268 266 268 268 254 252 260 264 264 261 257 253 250 248 246 243 240 236 233 234 234 232 230 232 232 230 226 222
309 306 307 307 310 310 306 299 296 288 286 284 282 280 269 263 263 263 265 262 253 250 257 264 264 263 258 253 249 249 246 245 240 236 236 237 234 231 233 234 235 231 227
299 299 298 301 305 304 303 301 296 290 285 282 280 280 275 266 260 260 259 258 259 259 255 261 265 265 264 258 252 251 250 248 247 241 237 238 236 232 234 233 234 234 232
289 289 293 296 298 296 299 298 302 294 288 285 279 277 275 270 263 262 256 258 257 260 264 259 258 263 265 262 255 253 253 252 249 249 243 240 237 234 234 236 237 236 233
280 284 283 289 293 289 293 295 295 294 288 287 283 278 274 272 264 260 256 260 260 258 262 266 261 256 258 259 255 253 253 252 253 250 251 245 240 235 235 237 239 238 236
275 276 282 288 286 285 288 293 291 290 292 291 285 284 277 264 259 260 260 265 266 264 263 264 266 266 260 254 251 252 253 252 251 250 250 252 244 240 237 237 239 240 240
271 271 275 280 283 284 284 287 287 282 286 285 283 288 284 270 249 259 259 260 264 264 261 263 266 264 265 262 253 249 252 253 253 252 249 251 252 247 240 236 237 241 241
266 265 270 275 277 278 278 281 277 274 280 283 273 273 280 281 303 265 260 261 264 268 267 265 263 265 262 260 258 247 249 256 257 255 253 252 254 254 244 237 237 240 242
270 266 267 269 271 272 274 274 271 268 267 270 271 260 264 280 284 286 267 265 274 272 273 272 267 261 259 258 254 256 252 255 257 258 257 255 254 256 250 238 238 239 242
265 266 267 267 267 268 271 271 269 265 261 261 265 267 265 267 266 272 279 279 277 272 275 276 272 264 256 257 254 252 251 255 258 261 262 258 257 256 255 247 240 239 240
268 268 267 264 265 267 269 268 265 261 259 259 259 260 262 262 264 268 276 280 282 283 279 275 270 267 261 259 256 252 252 256 258 260 261 260 259 258 254 254 245 242 243
270 274 272 269 270 270 269 267 264 262 260 259 257 258 260 262 265 267 273 279 284 288 283 275 269 264 262 259 258 248 247 251 256 260 260 257 255 257 255 255 251 244 247
271 275 273 271 272 271 270 268 266 264 262 260 259 258 258 261 260 259 266 277 282 282 277 276 276 266 260 261 260 259 255 249 252 256 256 256 254 252 255 255 252 243 247
268 270 272 272 272 271 269 269 266 266 265 261 260 259 258 258 258 257 259 261 270 279 279 282 280 275 277 269 258 260 263 255 252 252 251 251 252 250 253 255 248 240 242
267 269 270 270 271 271 270 268 268 267 266 265 261 260 260 259 260 257 255 256 257 265 273 281 283 283 282 274 265 268 267 261 253 250 249 247 248 246 247 252 247 239 239
270 269 270 272 273 272 270 268 268 270 269 269 267 263 263 261 260 258 256 256 256 257 265 277 281 283 284 277 275 275 271 264 256 246 248 247 247 240 242 244 241 240 236
273 272 272 274 274 273 272 270 270 270 270 270 269 268 266 265 260 259 256 255 257 255 260 271 279 280 279 276 275 274 275 269 263 252 252 248 244 239 235 235 235 238 235
277 277 275 276 278 278 276 273 274 272 271 271 270 269 268 265 263 261 261 260 259 258 257 264 273 277 277 272 275 273 275 274 271 259 255 247 237 229 229 233 234 233 231
277 279 278 278 279 279 277 277 276 274 274 273 272 271 271 265 265 266 264 264 265 263 261 262 267 273 274 273 266 265 272 275 275 270 260 255 224 220 222 228 231 230 227
278 279 280 279 280 280 278 283 283 280 278 277 275 273 272 269 268 267 266 264 264 264 264 264 265 270 270 267 262 261 263 275 281 271 262 262 244 233 218 210 214 214 219
284 284 282 283 285 285 291 291 289 283 281 278 279 278 276 271 269 266 266 265 263 262 264 263 263 262 266 267 267 261 260 264 276 269 257 265 256 254 255 242 199 196 205
288 287 285 287 289 293 295 295 293 289 284 280 279 280 280 279 277 273 271 267 264 262 259 261 261 261 264 262 259 259 259 261 267 264 264 277 276 274 276 226 196 201 205
288 287 289 292 292 294 299 301 299 291 286 282 281 282 282 283 281 281 279 275 272 269 265 260 258 260 262 263 258 263 264 274 288 279 266 273 293 297 312 285 187 192 183
291 289 292 292 292 295 300 304 302 294 291 292 289 285 282 282 284 284 280 279 279 278 277 266 266 267 267 267 256 247 240 230 253 287 299 244 264 327 329 312 351 154 170
292 295 293 291 292 296 303 306 305 295 295 297 295 290 286 286 287 288 282 277 278 281 282 281 272 267 263 259 255 243 235 223 222 261 276 238 230 265 340 336 352 46 101